Time,TemperatureF,DewpointF,PressureIn,WindDirection,WindDirectionDegrees,WindSpeedMPH,WindSpeedGustMPH,Humidity,HourlyPrecipIn,Conditions,Clouds,dailyrainin,SoftwareType,DateUTC
2013-09-27 00:05:00,59.0,55.0,30.15,NE,50,0.0,0.0,88,0.00,,,0.00,,2013-09-27 04:05:00,
2013-09-27 00:24:00,59.0,56.0,30.15,NE,50,0.0,0.0,90,0.00,,,0.00,,2013-09-27 04:24:00,
2013-09-27 00:33:00,59.0,56.0,30.15,NE,50,0.0,0.0,90,0.00,,,0.00,,2013-09-27 04:33:00,
2013-09-27 00:54:00,59.0,56.0,30.16,NE,50,0.0,1.0,90,0.00,,,0.00,,2013-09-27 04:54:00,
2013-09-27 01:04:00,59.0,56.0,30.16,NE,50,0.0,1.0,90,0.00,,,0.00,,2013-09-27 05:04:00,
2013-09-27 01:23:00,59.0,55.0,30.16,NE,50,0.0,2.0,88,0.00,,,0.00,,2013-09-27 05:23:00,
2013-09-27 01:34:00,59.0,55.0,30.16,NE,50,0.0,2.0,88,0.00,,,0.00,,2013-09-27 05:34:00,
2013-09-27 01:52:00,59.0,56.0,30.17,NE,56,0.0,3.0,89,0.00,,,0.00,,2013-09-27 05:52:00,
2013-09-27 02:02:00,59.0,56.0,30.17,NE,56,0.0,3.0,89,0.00,,,0.00,,2013-09-27 06:02:00,
2013-09-27 02:22:00,59.0,55.0,30.18,NE,54,0.0,6.0,87,0.00,,,0.00,,2013-09-27 06:22:00,
2013-09-27 02:32:00,59.0,55.0,30.18,NE,54,0.0,6.0,87,0.00,,,0.00,,2013-09-27 06:32:00,
2013-09-27 02:52:00,59.0,55.0,30.18,NNE,30,0.0,4.0,87,0.00,,,0.00,,2013-09-27 06:52:00,
2013-09-27 03:02:00,59.0,55.0,30.18,NNE,30,0.0,4.0,87,0.00,,,0.00,,2013-09-27 07:02:00,
2013-09-27 03:22:00,58.0,54.0,30.19,NE,45,0.0,4.0,88,0.00,,,0.00,,2013-09-27 07:22:00,
2013-09-27 03:32:00,58.0,54.0,30.19,NE,45,0.0,4.0,88,0.00,,,0.00,,2013-09-27 07:32:00,
2013-09-27 03:53:00,57.0,54.0,30.18,NE,43,0.0,4.0,89,0.00,,,0.00,,2013-09-27 07:53:00,
2013-09-27 04:02:00,57.0,54.0,30.18,NE,43,0.0,4.0,89,0.00,,,0.00,,2013-09-27 08:02:00,
2013-09-27 04:22:00,57.0,54.0,30.19,ESE,113,0.0,2.0,90,0.00,,,0.00,,2013-09-27 08:22:00,
2013-09-27 04:32:00,57.0,54.0,30.19,ESE,113,0.0,2.0,90,0.00,,,0.00,,2013-09-27 08:32:00,
2013-09-27 04:52:00,56.0,53.0,30.19,NE,53,0.0,4.0,91,0.00,,,0.00,,2013-09-27 08:52:00,
2013-09-27 05:02:00,56.0,53.0,30.19,NE,53,0.0,4.0,91,0.00,,,0.00,,2013-09-27 09:02:00,
2013-09-27 05:22:00,55.0,52.0,30.20,NE,53,0.0,2.0,91,0.00,,,0.00,,2013-09-27 09:22:00,
2013-09-27 05:33:00,55.0,52.0,30.20,NE,53,0.0,2.0,91,0.00,,,0.00,,2013-09-27 09:33:00,
2013-09-27 05:54:00,55.0,52.0,30.21,NE,53,0.0,4.0,91,0.00,,,0.00,,2013-09-27 09:54:00,
2013-09-27 06:03:00,55.0,52.0,30.21,NE,53,0.0,4.0,91,0.00,,,0.00,,2013-09-27 10:03:00,
2013-09-27 06:23:00,55.0,52.0,30.22,NE,48,0.0,4.0,91,0.00,,,0.00,,2013-09-27 10:23:00,
2013-09-27 06:33:00,55.0,52.0,30.22,NE,48,0.0,4.0,91,0.00,,,0.00,,2013-09-27 10:33:00,
2013-09-27 06:53:00,54.0,51.0,30.22,NE,44,3.0,4.0,90,0.00,,,0.00,,2013-09-27 10:53:00,
2013-09-27 07:03:00,54.0,51.0,30.22,NE,44,3.0,4.0,90,0.00,,,0.00,,2013-09-27 11:03:00,
2013-09-27 07:22:00,53.0,50.0,30.23,NE,47,0.0,5.0,91,0.00,,,0.00,,2013-09-27 11:22:00,
2013-09-27 07:33:00,53.0,50.0,30.23,NE,47,0.0,5.0,91,0.00,,,0.00,,2013-09-27 11:33:00,
2013-09-27 07:52:00,52.0,50.0,30.24,NE,47,0.0,1.0,93,0.00,,,0.00,,2013-09-27 11:52:00,
2013-09-27 08:02:00,52.0,50.0,30.24,NE,47,0.0,1.0,93,0.00,,,0.00,,2013-09-27 12:02:00,
2013-09-27 08:52:00,56.0,53.0,30.26,NE,45,0.0,2.0,89,0.00,,,0.00,,2013-09-27 12:52:00,
2013-09-27 09:22:00,58.0,54.0,30.27,ENE,77,1.0,5.0,85,0.00,,,0.00,,2013-09-27 13:22:00,
2013-09-27 09:32:00,58.0,54.0,30.27,ENE,77,1.0,5.0,85,0.00,,,0.00,,2013-09-27 13:32:00,
2013-09-27 09:53:00,60.0,54.0,30.27,ENE,64,1.0,7.0,80,0.00,,,0.00,,2013-09-27 13:53:00,
2013-09-27 10:02:00,60.0,54.0,30.27,ENE,64,1.0,7.0,80,0.00,,,0.00,,2013-09-27 14:02:00,
2013-09-27 10:22:00,63.0,55.0,30.27,NE,45,4.0,6.0,74,0.00,,,0.00,,2013-09-27 14:22:00,
2013-09-27 10:32:00,63.0,55.0,30.27,NE,45,4.0,6.0,74,0.00,,,0.00,,2013-09-27 14:32:00,
2013-09-27 10:52:00,64.0,55.0,30.28,ESE,115,0.0,7.0,72,0.00,,,0.00,,2013-09-27 14:52:00,
2013-09-27 11:02:00,64.0,55.0,30.28,ESE,115,0.0,7.0,72,0.00,,,0.00,,2013-09-27 15:02:00,
2013-09-27 11:22:00,68.0,56.0,30.28,SE,145,2.0,5.0,66,0.00,,,0.00,,2013-09-27 15:22:00,
2013-09-27 11:33:00,68.0,56.0,30.28,SE,145,2.0,5.0,66,0.00,,,0.00,,2013-09-27 15:33:00,
2013-09-27 17:22:00,78.0,56.0,30.23,NE,34,1.0,7.0,47,0.00,,,0.00,,2013-09-27 21:22:00,
2013-09-27 17:34:00,78.0,56.0,30.23,NE,34,1.0,7.0,47,0.00,,,0.00,,2013-09-27 21:34:00,
2013-09-27 18:53:00,74.0,57.0,30.23,ESE,111,0.0,3.0,55,0.00,,,0.00,,2013-09-27 22:53:00,
2013-09-27 19:03:00,74.0,57.0,30.23,ESE,111,0.0,3.0,55,0.00,,,0.00,,2013-09-27 23:03:00,
2013-09-27 19:22:00,68.0,56.0,30.23,ESE,110,0.0,0.0,66,0.00,,,0.00,,2013-09-27 23:22:00,
2013-09-27 19:34:00,68.0,56.0,30.23,ESE,110,0.0,0.0,66,0.00,,,0.00,,2013-09-27 23:34:00,
2013-09-27 19:53:00,64.0,55.0,30.24,ESE,109,0.0,0.0,72,0.00,,,0.00,,2013-09-27 23:53:00,
2013-09-27 20:02:00,64.0,55.0,30.24,ESE,109,0.0,0.0,72,0.00,,,0.00,,2013-09-28 00:02:00,
2013-09-27 20:22:00,61.0,54.0,30.24,ESE,105,0.0,0.0,77,0.00,,,0.00,,2013-09-28 00:22:00,
2013-09-27 20:32:00,61.0,54.0,30.24,ESE,105,0.0,0.0,77,0.00,,,0.00,,2013-09-28 00:32:00,
2013-09-27 20:52:00,59.0,53.0,30.25,ESE,102,0.0,0.0,80,0.00,,,0.00,,2013-09-28 00:52:00,
2013-09-27 21:01:00,59.0,53.0,30.25,ESE,102,0.0,0.0,80,0.00,,,0.00,,2013-09-28 01:01:00,
2013-09-27 21:22:00,57.0,52.0,30.26,ENE,75,0.0,0.0,83,0.00,,,0.00,,2013-09-28 01:22:00,
2013-09-27 21:32:00,57.0,52.0,30.26,ENE,75,0.0,0.0,83,0.00,,,0.00,,2013-09-28 01:32:00,
2013-09-27 21:52:00,55.0,51.0,30.27,ESE,111,0.0,0.0,86,0.00,,,0.00,,2013-09-28 01:52:00,
2013-09-27 22:03:00,55.0,51.0,30.27,ESE,111,0.0,0.0,86,0.00,,,0.00,,2013-09-28 02:03:00,
2013-09-27 22:22:00,54.0,51.0,30.27,ESE,111,0.0,1.0,89,0.00,,,0.00,,2013-09-28 02:22:00,
2013-09-27 22:32:00,54.0,51.0,30.27,ESE,111,0.0,1.0,89,0.00,,,0.00,,2013-09-28 02:32:00,
2013-09-27 22:53:00,53.0,50.0,30.28,ESE,111,0.0,0.0,90,0.00,,,0.00,,2013-09-28 02:53:00,
2013-09-27 23:03:00,53.0,50.0,30.28,ESE,111,0.0,0.0,90,0.00,,,0.00,,2013-09-28 03:03:00,
2013-09-27 23:22:00,52.0,50.0,30.29,ESE,111,0.0,0.0,93,0.00,,,0.00,,2013-09-28 03:22:00,
2013-09-27 23:34:00,52.0,50.0,30.29,ESE,111,0.0,0.0,93,0.00,,,0.00,,2013-09-28 03:34:00,
2013-09-27 23:55:00,51.0,49.0,30.30,ESE,111,0.0,1.0,94,0.00,,,0.00,,2013-09-28 03:55:00,